Volver al catálogo

USA 179

ActivoMilitarHEO
NORAD 28384·PAYLOAD·🇺🇸 United States

Lanzado Aug 31, 2004 desde Cape Canaveral Space Force Station

Loading…

Próximos Pases (próximas 24 horas)

TLE

ActualizadoSource: Mike McCants

Época: Sep 15, 2026, 00:19 UTC

1 28384U 04034A   26258.01366971  .00001481  00000-0  00000-0 0    09
2 28384  63.5857 196.1275 7259984 255.8699  20.4332  2.00447793  5746

Sigue USA 179 en tiempo real con AllMySat

Download on the App Store